Home > Weather > Bad Hersfeld > Past weeks

Flag for Germany Past Weather in Bad Hersfeld, Hesse, Germany — Yesterday and Last 2 Weeks

Now
55 °F

Fog.


Feels Like: 55 °F
Forecast: 58 / 73 °F
Wind: 2 mph from West

Location: Fritzlar Airport

Current Time: Jun 28, 2016 at 8:09:33 AM

Latest Report: Jun 28, 2016 at 7:20 AM


Visibility: N/A

Pressure: 30.09 "Hg

Humidity: 94%

Dew Point: 54 °F

Location of Bad HersfeldLocation

Past Weather in Bad Hersfeld — Graph

°F

Bad Hersfeld Temperature Yesterday

Maximum temperature yesterday: 68 °F (at 2:20 PM)
Minimum temperature yesterday: 46 °F (at 4:20 AM)
Average temperature yesterday: 59 °F

High & Low Weather Summary for the Past Weeks

 TemperatureHumidityPressure
High90 °F (Jun 23, 4:20 PM)100% (Jun 16, 2:20 AM)30.27 "Hg (Jun 16, 2:20 AM)
Low43 °F (Jun 20, 4:20 AM)38% (Jun 23, 4:20 PM)29.50 "Hg (Jun 14, 1:20 PM)
Average62 °F79%29.93 "Hg
* Reported Jun 13 6:20 AM — Jun 28 6:20 AM, Bad Hersfeld, Weather by CustomWeather, © 2016

Note: Actual official high and low records may vary slightly from our data, if they occured in-between our weather recording intervals... More about our weather records

Advertising

Bad Hersfeld Weather History for the Previous 24 Hours

Scroll right to see more
 ConditionsComfort  
Time TempWeatherWind HumidityBarometerVisibility
6:20 AM
Tue, Jun 28
54 °FFog.2 mph100%30.09 "HgN/A
5:20 AM54 °FFog.3 mph100%30.09 "HgN/A
4:20 AM55 °FPartly cloudy.2 mph94%30.09 "HgN/A
3:20 AM55 °FPartly cloudy.2 mph94%30.09 "HgN/A
2:20 AM57 °FPartly cloudy.3 mph88%30.09 "HgN/A
1:20 AM59 °FPartly cloudy.8 mph88%30.09 "HgN/A
12:20 AM61 °FLight rain. Partly cloudy.6 mph94%30.07 "HgN/A
11:20 PM
Mon, Jun 27
61 °FLight rain. Partly cloudy.1 mph88%30.09 "HgN/A
10:20 PM59 °FBroken clouds.5 mph94%30.07 "HgN/A
9:20 PM61 °FDrizzle. Fog.5 mph88%30.07 "Hg3 mi
8:20 PM61 °FLight rain. Partly sunny.8 mph88%30.07 "HgN/A
7:20 PM64 °FPartly sunny.10 mph73%30.07 "HgN/A
6:20 PM64 °FPartly sunny.9 mph73%30.07 "HgN/A
5:20 PM66 °FBroken clouds.15 mph64%30.07 "HgN/A
4:20 PM66 °FPartly sunny.15 mph64%30.09 "HgN/A
3:20 PM66 °FPartly sunny.14 mph60%30.07 "HgN/A
2:20 PM68 °FScattered clouds.14 mph53%30.07 "HgN/A
1:20 PM66 °FScattered clouds.13 mph56%30.09 "HgN/A
12:20 PM66 °FScattered clouds.12 mph60%30.09 "HgN/A
11:20 AM61 °FScattered clouds.10 mph68%30.12 "HgN/A
10:20 AM63 °FScattered clouds.10 mph68%30.12 "HgN/A
9:20 AM61 °FScattered clouds.9 mph77%30.09 "HgN/A
8:20 AM57 °FScattered clouds.7 mph82%30.12 "HgN/A
Weather by CustomWeather, © 2016

See weather overviewHow to use our weather pages